Baudette, MN

9:41 PM CDT on March 24, 2017 (GMT -0500)
Baudette International

Weather History for KBDE - September, 2013

Change the Weather History Date:

Tuesday, September 17, 2013

  Actual Average Record
Temperature  
Mean Temperature 54 °F -  
Max Temperature 66 °F 68 °F 87 °F (1998)
Min Temperature 44 °F 44 °F 25 °F (1959)
Degree Days  
Heating Degree Days 11    
Growing Degree Days 4 (Base 50)    
Moisture  
Dew Point 50 °F    
Average Humidity 79    
Maximum Humidity 93    
Minimum Humidity 63    
Precipitation  
Precipitation 0.00 in - - ()
Sea Level Pressure  
Sea Level Pressure 29.99 in    
Wind  
Wind Speed 8 mph (South)    
Max Wind Speed 18 mph    
Max Gust Speed 26 mph    
Visibility 10 miles    
Events      
Averages and records for this station are not official NWS values.
T = Trace of Precipitation, MM = Missing Value Source: NWS Daily Summary

Daily Weather History Graph

Daily Weather History Graph

Search for Another Location

Airport or City:

Trip Planner

Search our weather history database for the weather conditions in past years. The results will help you decide how hot, cold, wet, or windy it might be!

Date:

Astronomy

Sep. 17, 2013 Rise Set
Actual Time 6:58 AM CDT 7:26 PM CDT
Civil Twilight 6:26 AM CDT 7:57 PM CDT
Nautical Twilight 5:49 AM CDT 8:35 PM CDT
Astronomical Twilight 5:10 AM CDT 9:14 PM CDT
Moon 6:17 PM CDT (9/17) 4:46 AM CDT (9/17)
Length of Visible Light 13h 31m
Length of Day
12h 28m
Waxing Gibbous, 96% of the Moon is Illuminated
Sep 17
Waxing Gibbous
Sep 19
Full
Sep 26
Last Quarter
Oct 4
New
Oct 11
First Quarter

Hourly Weather History & Observations

Time (CDT) Temp. Windchill Dew Point Humidity Pressure Visibility Wind Dir Wind Speed Gust Speed Precip Events Conditions
12:53 AM 46.9 °F - 43.0 °F 86% 30.16 in 10.0 mi SE 4.6 mph - N/A   Clear
1:53 AM 44.1 °F 42.5 °F 41.0 °F 89% 30.16 in 10.0 mi Variable 3.5 mph - N/A   Clear
2:53 AM 44.1 °F 40.8 °F 41.0 °F 89% 30.15 in 10.0 mi SE 5.8 mph - N/A   Clear
3:53 AM 44.1 °F 42.5 °F 42.1 °F 93% 30.14 in 10.0 mi SE 3.5 mph - N/A   Clear
4:53 AM 45.0 °F 43.5 °F 43.0 °F 93% 30.12 in 10.0 mi SE 3.5 mph - N/A   Clear
5:53 AM 45.0 °F 43.5 °F 43.0 °F 93% 30.10 in 10.0 mi SE 3.5 mph - N/A   Clear
6:53 AM 44.1 °F 42.5 °F 42.1 °F 93% 30.09 in 10.0 mi Variable 3.5 mph - N/A   Clear
7:53 AM 46.0 °F 44.8 °F 44.1 °F 93% 30.08 in 10.0 mi Variable 3.5 mph - N/A   Clear
8:53 AM 52.0 °F - 48.0 °F 86% 30.07 in 10.0 mi Variable 4.6 mph - N/A   Clear
9:53 AM 57.9 °F - 51.1 °F 78% 30.05 in 10.0 mi South 11.5 mph 20.7 mph N/A   Clear
10:53 AM 60.1 °F - 50.0 °F 69% 30.03 in 10.0 mi South 17.3 mph 24.2 mph N/A   Clear
11:53 AM 63.0 °F - 51.1 °F 65% 30.01 in 10.0 mi South 15.0 mph 23.0 mph N/A   Clear
12:53 PM 64.0 °F - 51.1 °F 63% 29.98 in 10.0 mi South 18.4 mph 24.2 mph N/A   Mostly Cloudy
1:39 PM 62.6 °F - 51.8 °F 68% 29.96 in 10.0 mi South 15.0 mph 24.2 mph N/A   Overcast
1:53 PM 63.0 °F - 53.1 °F 70% 29.97 in 10.0 mi South 17.3 mph 24.2 mph N/A   Overcast
2:53 PM 62.1 °F - 54.0 °F 75% 29.96 in 10.0 mi South 17.3 mph 25.3 mph N/A   Overcast
3:53 PM 62.1 °F - 55.0 °F 78% 29.93 in 10.0 mi South 11.5 mph 21.9 mph N/A   Overcast
4:53 PM 63.0 °F - 55.0 °F 75% 29.91 in 10.0 mi South 17.3 mph 25.3 mph N/A   Overcast
5:05 PM 62.6 °F - 53.6 °F 72% 29.89 in 10.0 mi South 18.4 mph 26.5 mph N/A   Overcast
5:53 PM 62.1 °F - 54.0 °F 75% 29.90 in 10.0 mi South 16.1 mph 21.9 mph N/A   Overcast
6:53 PM 62.1 °F - 54.0 °F 75% 29.88 in 10.0 mi South 10.4 mph 20.7 mph N/A   Overcast
7:06 PM 62.6 °F - 53.6 °F 72% 29.86 in 10.0 mi South 11.5 mph 18.4 mph N/A   Overcast
7:53 PM 61.0 °F - 54.0 °F 78% 29.88 in 10.0 mi South 10.4 mph - N/A   Overcast
8:53 PM 61.0 °F - 54.0 °F 78% 29.88 in 10.0 mi South 6.9 mph - N/A   Overcast
9:53 PM 61.0 °F - 54.0 °F 78% 29.87 in 10.0 mi South 8.1 mph - N/A   Overcast
10:53 PM 61.0 °F - 55.0 °F 81% 29.87 in 10.0 mi South 11.5 mph 18.4 mph N/A   Overcast
11:53 PM 61.0 °F - 55.0 °F 81% 29.86 in 10.0 mi South 9.2 mph 18.4 mph N/A   Overcast